Volver al catálogo

STARLINK-30987

ActivoComunicacionesVLEO
NORAD 58487·PAYLOAD·🇺🇸 United States

Lanzado Dec 3, 2023 desde Cape Canaveral Space Force Station

Loading…

Próximos Pases (próximas 24 horas)

TLE

ActualizadoSource: CelesTrak SupGP

Época: Sep 14, 2026, 20:52 UTC

1 58487C 23186Q   26257.86993056  .00005583  00000+0  20229-3 0  2575
2 58487  43.0000  75.4183 0001437 273.6923 206.8267 15.27563245    18

Sigue STARLINK-30987 en tiempo real con AllMySat

Download on the App Store